FW5145 Weather Reports


Display with metric or nautical units.
time (UTC)temp
F
wind
direction
speed
MPH
gust
MPH
rain 1hr
in
rain 24hr
in
rain mn
in
humidity
%
barometer
mb
20210621133536 54 12 5.0 14.0 0.00 0.09 0.09 90 1011.6
20210621133110 54 13 4.0 15.0 0.00 0.09 0.09 90 1011.6
20210621132539 54 57 4.0 15.0 0.00 0.09 0.09 90 1011.5
20210621132040 54 19 7.0 15.0 0.00 0.09 0.09 90 1011.4
20210621131639 54 92 5.0 14.0 0.00 0.09 0.09 90 1011.5
20210621131044 54 36 5.0 14.0 0.00 0.09 0.09 89 1011.6
20210621130556 54 18 4.0 13.0 0.00 0.08 0.08 90 1011.6
20210621130150 54 24 6.0 12.0 0.00 0.08 0.08 90 1011.6
20210621125545 54 5 4.0 11.0 0.00 0.08 0.08 90 1011.5
20210621125032 54 34 5.0 13.0 0.00 0.08 0.08 90 1011.5
20210621124549 54 39 6.0 13.0 0.00 0.08 0.08 90 1011.5
20210621124032 54 132 6.0 12.0 0.00 0.08 0.08 89 1011.5
20210621123534 54 41 5.0 13.0 0.00 0.08 0.08 90 1011.5
20210621123118 54 15 6.0 13.0 0.00 0.08 0.08 90 1011.4
20210621122537 54 24 3.0 13.0 0.00 0.08 0.08 90 1011.4
20210621122035 54 29 5.0 13.0 0.00 0.08 0.08 90 1011.4
20210621121615 54 5 5.0 13.0 0.00 0.08 0.08 90 1011.3
20210621121039 54 53 7.0 13.0 0.00 0.08 0.08 90 1011.3
20210621120533 54 41 4.0 13.0 0.00 0.08 0.08 90 1011.3
20210621120139 54 39 6.0 15.0 0.00 0.08 0.08 90 1011.3
20210621115540 54 44 6.0 15.0 0.00 0.08 0.08 90 1011.3
20210621115052 54 69 6.0 15.0 0.00 0.08 0.08 90 1011.3
20210621114557 54 38 7.0 15.0 0.00 0.08 0.08 90 1011.2
20210621114036 54 85 5.0 15.0 0.00 0.08 0.08 90 1011.2
20210621113556 53 352 5.0 11.0 0.00 0.08 0.08 90 1011.1
20210621113113 53 34 5.0 12.0 0.00 0.08 0.08 90 1011.1
20210621112536 53 344 5.0 14.0 0.01 0.08 0.08 90 1011.1
20210621112033 53 43 7.0 14.0 0.01 0.08 0.08 90 1011.1
20210621111612 53 28 5.0 11.0 0.02 0.08 0.08 90 1011.2
20210621111036 53 35 6.0 13.0 0.02 0.08 0.08 90 1011.0
20210621110532 53 28 3.0 13.0 0.01 0.07 0.07 90 1011.1
20210621110149 53 28 3.0 13.0 0.02 0.07 0.07 90 1011.1
20210621105532 53 82 5.0 16.0 0.02 0.07 0.07 90 1010.9
20210621105037 53 69 6.0 16.0 0.02 0.07 0.07 90 1010.9
20210621104548 53 48 5.0 13.0 0.03 0.07 0.07 90 1010.8
20210621104033 53 65 6.0 17.0 0.03 0.07 0.07 90 1010.9
20210621103530 53 42 4.0 17.0 0.03 0.07 0.07 91 1010.8
20210621103049 53 43 5.0 15.0 0.03 0.07 0.07 90 1010.8
20210621102532 53 5 5.0 15.0 0.02 0.07 0.07 91 1010.6
20210621102032 53 76 5.0 12.0 0.02 0.07 0.07 90 1010.7
20210621101557 53 21 6.0 14.0 0.01 0.06 0.06 90 1010.7
20210621101032 53 17 6.0 14.0 0.01 0.06 0.06 90 1010.7
20210621100534 53 50 7.0 15.0 0.01 0.06 0.06 90 1010.7
20210621100109 53 73 7.0 15.0 0.00 0.05 0.05 90 1010.6
20210621095531 53 342 5.0 13.0 0.00 0.05 0.05 90 1010.5
20210621095043 53 118 6.0 13.0 0.01 0.05 0.05 90 1010.6
20210621094554 53 334 5.0 12.0 0.00 0.04 0.04 90 1010.5
20210621094044 53 50 3.0 14.0 0.00 0.04 0.04 90 1010.4
20210621093541 53 9 7.0 14.0 0.00 0.04 0.04 90 1010.4
20210621093107 53 69 4.0 13.0 0.00 0.04 0.04 91 1010.4
20210621092544 53 41 3.0 11.0 0.00 0.04 0.04 91 1010.4
20210621092032 53 23 5.0 11.0 0.00 0.04 0.04 91 1010.3
20210621091608 53 360 4.0 12.0 0.00 0.04 0.04 91 1010.4
20210621091034 53 57 4.0 12.0 0.00 0.04 0.04 91 1010.2
20210621090534 53 360 4.0 13.0 0.01 0.04 0.04 91 1010.3
20210621090116 53 38 6.0 13.0 0.01 0.04 0.04 91 1010.2
20210621085535 52 48 5.0 11.0 0.01 0.04 0.04 91 1010.3
20210621085050 52 75 3.0 11.0 0.00 0.03 0.03 91 1010.4
20210621084614 52 38 5.0 12.0 0.00 0.03 0.03 91 1010.3
20210621084105 52 57 6.0 12.0 0.01 0.03 0.03 91 1010.1
20210621083607 52 68 4.0 10.0 0.01 0.03 0.03 91 1010.1
20210621083105 52 5 5.0 10.0 0.01 0.03 0.03 91 1010.0
20210621082543 52 76 4.0 10.0 0.01 0.03 0.03 91 1010.0
20210621082033 52 22 4.0 11.0 0.01 0.03 0.03 91 1009.9
20210621081605 52 360 5.0 12.0 0.01 0.03 0.03 91 1009.9
20210621081032 52 17 3.0 12.0 0.01 0.03 0.03 91 1009.9
20210621080537 52 5 4.0 13.0 0.00 0.03 0.03 91 1009.9
20210621080115 52 11 5.0 14.0 0.00 0.03 0.03 91 1009.8
20210621075531 52 13 7.0 14.0 0.00 0.03 0.03 91 1009.9
20210621075037 52 14 7.0 14.0 0.00 0.03 0.03 90 1009.7
20210621074639 52 14 5.0 14.0 0.00 0.02 0.02 90 1009.7
20210621074059 52 30 6.0 13.0 0.00 0.02 0.02 90 1009.7
20210621073538 52 352 6.0 13.0 0.00 0.02 0.02 90 1009.8
20210621073049 52 5 5.0 12.0 0.00 0.02 0.02 90 1009.7
20210621072540 52 57 5.0 12.0 0.00 0.02 0.02 90 1009.7
20210621072034 52 360 5.0 12.0 0.00 0.02 0.02 90 1009.7
20210621071541 52 25 6.0 10.0 0.00 0.02 0.02 90 1009.7
20210621071031 52 18 4.0 11.0 0.00 0.02 0.02 90 1009.6
20210621070552 52 30 6.0 11.0 0.00 0.02 0.02 90 1009.6
20210621070053 52 12 4.0 14.0 0.00 0.02 0.02 90 1009.5
20210621065532 52 47 6.0 14.0 0.00 0.02 0.02 91 1009.5
20210621065041 52 22 4.0 9.0 0.01 0.02 0.02 91 1009.5
20210621064654 52 30 3.0 13.0 0.01 0.02 0.02 91 1009.4
20210621064041 52 46 5.0 13.0 0.01 0.02 0.02 90 1009.5
20210621063534 52 34 5.0 12.0 0.00 0.01 0.01 90 1009.4
20210621063101 52 69 5.0 12.0 0.00 0.01 0.01 90 1009.5
20210621062542 52 31 4.0 12.0 0.00 0.01 0.01 90 1009.4
20210621062043 52 23 4.0 12.0 0.01 0.01 0.01 90 1009.4
20210621061616 52 24 4.0 11.0 0.01 0.01 0.01 90 1009.4
20210621061034 52 9 4.0 10.0 0.01 0.01 0.01 90 1009.2
20210621060531 52 19 4.0 10.0 0.01 0.01 0.01 90 1009.1
20210621060052 52 5 5.0 11.0 0.01 0.01 0.01 90 1009.2
20210621055536 52 352 6.0 11.0 0.01 0.01 0.01 90 1009.1
20210621055032 52 352 4.0 9.0 0.00 0.00 0.00 90 1009.1
20210621054554 52 22 4.0 10.0 0.00 0.00 0.00 90 1009.1
20210621054034 52 43 4.0 10.0 0.00 0.00 0.00 90 1009.1
20210621053540 52 21 4.0 10.0 0.00 0.00 0.00 90 1008.9
20210621053124 52 21 4.0 9.0 0.00 0.00 0.00 90 1009.0
20210621052532 52 15 3.0 9.0 0.00 0.00 0.00 89 1009.0
20210621052034 52 5 4.0 11.0 0.00 0.00 0.00 89 1009.0
20210621051607 52 24 6.0 11.0 0.00 0.00 0.00 89 1009.0
20210621051036 52 40 4.0 9.0 0.00 0.00 0.00 89 1008.9
20210621050531 52 89 4.0 11.0 0.00 0.00 0.00 89 1009.0
20210621050135 52 11 4.0 11.0 0.00 0.00 0.00 89 1009.0
20210621045538 52 17 4.0 10.0 0.00 0.00 0.00 89 1009.0
20210621045035 52 5 4.0 10.0 0.00 0.00 0.00 89 1009.0
20210621044808 52 21 4.0 11.0 0.00 0.00 0.00 89 1008.9
20210621044109 52 55 5.0 11.0 0.00 0.00 0.00 89 1009.0
20210621043537 53 46 2.0 9.0 0.00 0.00 0.00 89 1008.9
20210621043110 53 34 4.0 9.0 0.00 0.00 0.00 89 1008.8
20210621042541 53 40 3.0 9.0 0.00 0.00 0.00 89 1008.9
20210621042102 53 9 4.0 9.0 0.00 0.00 0.00 89 1008.9
20210621041606 53 342 4.0 10.0 0.00 0.00 0.00 89 1008.8
20210621041033 53 11 4.0 10.0 0.00 0.00 0.00 89 1008.7
20210621040531 53 25 5.0 9.0 0.00 0.00 0.00 89 1008.7
20210621040124 53 24 4.0 12.0 0.00 0.00 0.00 89 1008.7
20210621035533 53 26 5.0 12.0 0.00 0.00 0.00 89 1008.7
20210621035032 53 12 4.0 10.0 0.00 0.00 0.00 89 1008.7
20210621034626 53 360 4.0 9.0 0.00 0.00 0.00 89 1008.7
20210621034036 53 0 3.0 11.0 0.00 0.00 0.00 89 1008.7
20210621033531 53 30 4.0 11.0 0.00 0.00 0.00 89 1008.7
20210621033050 53 17 4.0 11.0 0.00 0.00 0.00 89 1008.7
20210621032532 53 57 4.0 12.0 0.00 0.00 0.00 89 1008.6
20210621032033 53 22 4.0 12.0 0.00 0.00 0.00 89 1008.7
20210621031708 53 55 4.0 11.0 0.00 0.00 0.00 89 1008.6
20210621031119 53 17 4.0 9.0 0.00 0.00 0.00 89 1008.7
20210621030534 53 57 3.0 11.0 0.00 0.00 0.00 89 1008.6
20210621030052 53 44 4.0 13.0 0.00 0.00 0.00 89 1008.6
20210621025531 53 360 5.0 13.0 0.00 0.00 0.00 89 1008.4
20210621025034 53 47 4.0 9.0 0.00 0.00 0.00 89 1008.3
20210621024616 53 17 4.0 10.0 0.00 0.00 0.00 89 1008.4
20210621024029 53 31 4.0 11.0 0.00 0.00 0.00 88 1008.4
20210621023539 53 360 5.0 11.0 0.00 0.00 0.00 88 1008.5
20210621023152 53 65 4.0 11.0 0.00 0.00 0.00 88 1008.4
20210621022534 53 49 3.0 10.0 0.00 0.00 0.00 88 1008.3
20210621022045 54 40 4.0 10.0 0.00 0.00 0.00 88 1008.3
20210621021548 54 26 2.0 14.0 0.00 0.00 0.00 88 1008.2
20210621021034 54 40 6.0 14.0 0.00 0.00 0.00 88 1008.2
20210621020532 54 28 3.0 10.0 0.00 0.00 0.00 88 1008.0
20210621020047 54 36 4.0 10.0 0.00 0.00 0.00 88 1008.1
20210621015541 54 26 4.0 11.0 0.00 0.01 0.00 88 1008.1
20210621015033 54 64 5.0 11.0 0.00 0.01 0.00 88 1008.1
20210621014615 54 25 4.0 13.0 0.00 0.01 0.00 88 1008.2
20210621014036 54 13 5.0 13.0 0.00 0.01 0.00 88 1008.0
20210621013534 54 14 6.0 12.0 0.00 0.01 0.00 88 1008.2
20210621013056 54 11 5.0 11.0 0.00 0.01 0.00 88 1008.1
20210621012536 54 11 5.0 10.0 0.00 0.01 0.00 87 1008.2
20210621012030 54 22 4.0 11.0 0.00 0.01 0.00 87 1008.3
20210621011646 54 46 4.0 13.0 0.00 0.01 0.00 87 1008.3
20210621011035 54 41 5.0 13.0 0.00 0.01 0.00 87 1008.3
20210621010543 54 45 5.0 12.0 0.00 0.01 0.00 87 1008.5
20210621010126 54 92 3.0 13.0 0.00 0.01 0.00 88 1008.6
20210621005539 54 52 3.0 13.0 0.00 0.01 0.00 87 1008.6
20210621005037 54 39 4.0 12.0 0.00 0.01 0.00 88 1008.7
20210621004555 54 34 5.0 12.0 0.00 0.01 0.00 88 1008.7
20210621004030 54 30 4.0 10.0 0.00 0.01 0.00 88 1008.6
20210621003533 54 40 3.0 15.0 0.00 0.01 0.00 88 1008.6
20210621003127 54 5 4.0 15.0 0.00 0.01 0.00 88 1008.6
20210621002548 54 37 6.0 13.0 0.00 0.01 0.00 88 1008.3
20210621002033 54 43 5.0 13.0 0.00 0.01 0.00 88 1008.4
20210621001637 54 333 4.0 12.0 0.00 0.01 0.00 88 1008.4
20210621001034 55 38 4.0 13.0 0.00 0.01 0.00 89 1008.6
20210621000536 55 52 5.0 13.0 0.00 0.01 0.00 89 1008.4
20210621000131 55 25 5.0 13.0 0.00 0.01 0.00 89 1008.5
20210620235539 55 47 4.0 10.0 0.00 0.01 0.00 89 1008.5
20210620235040 55 43 3.0 11.0 0.00 0.01 0.00 89 1008.6
20210620234550 55 53 3.0 11.0 0.00 0.01 0.00 89 1008.5
20210620234037 55 44 3.0 10.0 0.00 0.01 0.00 88 1008.5
20210620233531 55 349 4.0 10.0 0.00 0.01 0.00 88 1008.6
20210620233101 55 16 3.0 11.0 0.00 0.01 0.00 88 1008.6
20210620232531 55 96 4.0 11.0 0.00 0.01 0.00 88 1008.6
20210620232036 55 53 3.0 11.0 0.00 0.01 0.00 88 1008.5
20210620231601 56 63 5.0 11.0 0.00 0.01 0.00 88 1008.6
20210620231033 56 34 4.0 14.0 0.00 0.01 0.00 89 1008.6
20210620230539 56 51 4.0 14.0 0.00 0.01 0.00 88 1008.6
20210620230055 56 5 2.0 10.0 0.00 0.01 0.00 89 1008.6
20210620225535 56 16 4.0 9.0 0.00 0.01 0.01 88 1008.5
20210620225042 56 42 3.0 13.0 0.00 0.01 0.01 88 1008.5
20210620224737 56 46 5.0 13.0 0.00 0.01 0.01 88 1008.6
20210620224035 56 13 4.0 10.0 0.00 0.01 0.01 88 1008.7
20210620223535 56 5 3.0 12.0 0.00 0.01 0.01 89 1008.6
20210620223117 56 29 2.0 12.0 0.00 0.01 0.01 89 1008.7
20210620222540 56 57 4.0 12.0 0.00 0.01 0.01 88 1008.8
20210620222034 56 38 4.0 12.0 0.00 0.01 0.01 88 1008.8
20210620221616 56 11 5.0 10.0 0.00 0.01 0.01 89 1008.8
20210620221034 56 27 3.0 10.0 0.00 0.01 0.01 89 1008.9
20210620220537 56 44 3.0 9.0 0.00 0.01 0.01 89 1008.9
20210620220141 57 63 2.0 6.0 0.00 0.01 0.01 89 1009.0
20210620215541 57 71 2.0 12.0 0.00 0.01 0.01 89 1009.0
20210620215038 57 84 4.0 12.0 0.00 0.01 0.01 89 1009.0
20210620214622 57 5 2.0 10.0 0.00 0.01 0.01 89 1009.1
20210620214037 57 24 2.0 10.0 0.00 0.01 0.01 89 1009.1
20210620213535 57 40 4.0 10.0 0.00 0.01 0.01 89 1009.0
20210620213127 57 9 2.0 9.0 0.00 0.01 0.01 89 1008.9
20210620212607 57 26 1.0 11.0 0.00 0.01 0.01 89 1009.0
20210620212034 57 21 4.0 11.0 0.00 0.01 0.01 89 1008.9
20210620211613 57 80 2.0 9.0 0.00 0.01 0.01 89 1008.9
20210620211037 57 34 2.0 9.0 0.00 0.01 0.01 89 1008.9
20210620210537 57 95 1.0 6.0 0.00 0.01 0.01 89 1009.0
20210620210050 57 79 2.0 8.0 0.00 0.01 0.01 89 1008.9
20210620205551 57 61 2.0 8.0 0.00 0.01 0.01 89 1008.9
20210620205035 57 56 1.0 8.0 0.00 0.01 0.01 88 1008.9
20210620204623 57 29 1.0 6.0 0.00 0.01 0.01 88 1008.9
20210620204035 57 87 2.0 7.0 0.00 0.01 0.01 88 1009.0
20210620203533 58 30 2.0 7.0 0.00 0.01 0.01 88 1008.9
20210620203116 58 36 1.0 4.0 0.00 0.01 0.01 88 1008.8
20210620202626 58 36 1.0 6.0 0.00 0.01 0.01 88 1008.8
20210620202035 58 76 1.0 6.0 0.00 0.01 0.01 88 1008.8
20210620201707 58 30 2.0 6.0 0.00 0.01 0.01 88 1008.6
20210620201035 58 107 2.0 7.0 0.00 0.01 0.01 88 1008.6
20210620200532 58 30 2.0 7.0 0.00 0.01 0.01 88 1008.5
20210620200054 58 28 2.0 7.0 0.00 0.01 0.01 88 1008.5
20210620195539 58 83 2.0 7.0 0.00 0.01 0.01 88 1008.4
20210620195034 58 23 2.0 7.0 0.00 0.01 0.01 88 1008.5
20210620194653 58 26 2.0 8.0 0.00 0.01 0.01 88 1008.5
20210620194032 58 42 2.0 8.0 0.00 0.01 0.01 88 1008.6
20210620193531 58 79 1.0 8.0 0.00 0.01 0.01 87 1008.5
20210620193139 59 110 2.0 8.0 0.00 0.01 0.01 88 1008.5
20210620192554 59 19 2.0 9.0 0.00 0.01 0.01 87 1008.6
20210620192033 59 55 3.0 9.0 0.00 0.01 0.01 87 1008.6
20210620191647 59 46 2.0 8.0 0.00 0.01 0.01 87 1008.6
20210620191031 59 163 2.0 8.0 0.00 0.01 0.01 87 1008.6
20210620190532 60 59 2.0 8.0 0.00 0.01 0.01 87 1008.4
20210620190109 60 64 2.0 10.0 0.00 0.01 0.01 87 1008.5
20210620185536 60 325 3.0 10.0 0.00 0.01 0.01 87 1008.5
20210620185032 60 70 4.0 10.0 0.00 0.01 0.01 86 1008.4
20210620184632 60 24 2.0 10.0 0.00 0.01 0.01 87 1008.5
20210620184033 61 76 3.0 7.0 0.00 0.01 0.01 86 1008.3
20210620183552 61 24 2.0 10.0 0.00 0.01 0.01 86 1008.3
20210620183100 61 56 3.0 10.0 0.00 0.01 0.01 86 1008.5
20210620182540 61 137 3.0 10.0 0.00 0.01 0.01 86 1008.5
20210620182031 61 98 2.0 6.0 0.00 0.01 0.01 86 1008.5
20210620181639 61 0 1.0 5.0 0.00 0.01 0.01 86 1008.5
20210620181031 62 74 2.0 8.0 0.00 0.01 0.01 85 1008.4
20210620180532 62 0 2.0 8.0 0.00 0.01 0.01 85 1008.3
20210620180116 62 103 1.0 6.0 0.00 0.01 0.01 85 1008.3
20210620175531 62 62 3.0 8.0 0.00 0.01 0.01 84 1008.2
20210620175031 63 53 2.0 9.0 0.00 0.01 0.01 84 1008.1
20210620174641 63 90 2.0 9.0 0.00 0.01 0.01 83 1007.9
20210620174032 64 108 2.0 8.0 0.00 0.01 0.01 83 1007.9
20210620173531 64 90 2.0 8.0 0.00 0.01 0.01 83 1007.8
20210620173100 64 131 2.0 5.0 0.00 0.01 0.01 83 1007.8
20210620172531 64 0 1.0 5.0 0.00 0.01 0.01 85 1007.9
20210620172033 63 153 1.0 4.0 0.00 0.01 0.01 84 1007.7
20210620171628 63 0 1.0 4.0 0.00 0.01 0.01 84 1007.8
20210620171039 63 119 1.0 4.0 0.00 0.01 0.01 84 1007.7
20210620170531 63 92 1.0 8.0 0.00 0.01 0.01 84 1007.7
20210620170048 63 0 2.0 8.0 0.00 0.01 0.01 83 1007.6
20210620165530 64 105 0.0 10.0 0.00 0.01 0.01 83 1007.6
20210620165033 64 116 3.0 12.0 0.00 0.01 0.01 84 1007.5
20210620164607 64 24 3.0 12.0 0.00 0.01 0.01 85 1007.5
20210620164037 63 14 3.0 10.0 0.00 0.01 0.01 84 1007.5
20210620163545 64 64 3.0 10.0 0.00 0.01 0.01 83 1007.4
20210620163059 64 149 1.0 10.0 0.00 0.01 0.01 83 1007.6
20210620162532 64 42 2.0 10.0 0.00 0.01 0.01 82 1007.5
20210620162109 65 5 3.0 10.0 0.00 0.01 0.01 82 1007.3
20210620161636 65 0 3.0 10.0 0.00 0.01 0.01 81 1007.4
20210620161031 66 26 2.0 10.0 0.00 0.01 0.01 81 1007.3
20210620160536 66 40 3.0 10.0 0.00 0.01 0.01 82 1007.4
20210620160101 66 15 3.0 9.0 0.00 0.01 0.01 82 1007.4
20210620155533 66 57 4.0 8.0 0.00 0.01 0.01 83 1007.5
20210620155031 65 75 3.0 8.0 0.00 0.01 0.01 84 1007.4
20210620154616 65 0 1.0 7.0 0.00 0.01 0.01 83 1007.5
20210620154036 64 28 3.0 7.0 0.00 0.01 0.01 82 1007.5
20210620153539 64 86 2.0 6.0 0.00 0.01 0.01 83 1007.5
20210620153049 64 5 2.0 7.0 0.00 0.01 0.01 83 1007.6
20210620152531 64 146 1.0 7.0 0.00 0.01 0.01 84 1007.6
20210620152040 64 12 1.0 4.0 0.00 0.01 0.01 83 1007.6
20210620151620 64 84 1.0 4.0 0.00 0.01 0.01 83 1007.6
20210620151031 65 85 1.0 10.0 0.00 0.01 0.01 83 1007.5
20210620150533 65 141 2.0 10.0 0.00 0.01 0.01 84 1007.5
20210620150059 64 53 1.0 10.0 0.00 0.01 0.01 83 1007.5
20210620145544 64 360 3.0 10.0 0.00 0.01 0.01 83 1007.5
20210620145031 64 0 4.0 11.0 0.00 0.01 0.01 83 1007.5
20210620144546 65 22 6.0 11.0 0.00 0.01 0.01 83 1007.5
20210620144032 65 26 4.0 8.0 0.00 0.01 0.01 82 1007.6
20210620143531 66 13 2.0 6.0 0.00 0.01 0.01 82 1007.5
20210620143115 66 0 2.0 6.0 0.00 0.01 0.01 83 1007.5
20210620142531 66 10 2.0 8.0 0.00 0.01 0.01 82 1007.7
20210620142031 66 16 1.0 8.0 0.00 0.01 0.01 84 1007.8
20210620141608 66 13 3.0 8.0 0.00 0.01 0.01 84 1008.0
20210620141032 65 13 1.0 5.0 0.00 0.01 0.01 86 1008.1
20210620140536 64 18 3.0 8.0 0.00 0.01 0.01 86 1008.1
20210620140230 64 24 3.0 8.0 0.00 0.01 0.01 87 1008.2
20210620135540 63 31 2.0 7.0 0.00 0.01 0.01 88 1008.2
20210620135035 62 17 3.0 7.0 0.00 0.01 0.01 87 1008.3
20210620134612 62 38 1.0 5.0 0.00 0.01 0.01 87 1008.4
20210620134034 62 0 1.0 5.0 0.00 0.01 0.01 88 1008.5